Location: Limoges
(45.8354°N, 1.2645°E)
Time: 09:45:15
(UTC+01:00)

deb Explorer IX - All Passes

Search period start: 25 February 2024 00:00
Search period end: 06 March 2024 00:00
Orbit: 516 x 916 km, 38.7° (Epoch: 24 February)

Date Brightness Start Highest point End Pass type
(mag) Time Alt. Az. Time Alt. Az. Time Alt. Az.
25 Feb - 09:33:33 10° SSE 09:35:02 11° SE 09:36:31 10° SE daylight
25 Feb - 11:13:26 10° SW 11:18:41 29° SSE 11:23:54 10° E daylight
25 Feb - 12:56:58 10° WSW 13:02:52 43° S 13:08:32 10° ESE daylight
25 Feb - 14:41:30 10° WSW 14:47:08 37° SSW 14:52:23 10° SE daylight
25 Feb - 16:27:03 10° WSW 16:30:56 18° SSW 16:34:35 10° S daylight
26 Feb - 10:18:08 10° SSW 10:22:52 23° SSE 10:27:38 10° ESE daylight
26 Feb - 12:01:06 10° WSW 12:06:55 40° S 12:12:38 10° ESE daylight
26 Feb - 13:45:23 10° WSW 13:51:13 42° S 13:56:47 10° ESE daylight
26 Feb - 15:30:27 10° WSW 15:35:15 24° SSW 15:39:45 10° SSE daylight
27 Feb - 09:23:15 10° S 09:27:06 17° SSE 09:31:02 10° ESE daylight
27 Feb - 11:05:21 10° SW 11:10:58 36° SSE 11:16:37 10° E daylight
27 Feb - 12:49:20 10° WSW 12:55:16 44° S 13:01:01 10° ESE daylight
27 Feb - 14:34:05 10° W 14:39:26 30° SSW 14:44:31 10° SE daylight
27 Feb - 16:20:58 10° WSW 16:23:00 12° SW 16:25:00 10° SSW daylight
28 Feb - 08:29:12 10° SSE 08:31:24 12° SE 08:33:40 10° ESE daylight
28 Feb - 10:09:47 10° SW 10:15:03 31° SSE 10:20:27 10° E daylight
28 Feb - 11:53:21 10° WSW 11:59:16 44° S 12:05:07 10° ESE daylight
28 Feb - 13:37:51 10° W 13:43:32 36° SSW 13:49:00 10° SE daylight
28 Feb - 15:23:29 10° WSW 15:27:21 17° SSW 15:31:04 10° S daylight
29 Feb - 09:14:26 10° SSW 09:19:10 25° SSE 09:24:06 10° ESE daylight
29 Feb - 10:57:28 10° WSW 11:03:14 42° S 11:09:06 10° ESE daylight
29 Feb - 12:41:43 10° WSW 12:47:33 41° S 12:53:17 10° ESE daylight
29 Feb - 14:26:47 10° WSW 14:31:34 23° SSW 14:36:12 10° SSE daylight
01 Mar - 08:19:27 10° S 08:23:22 19° SSE 08:27:27 10° ESE daylight
01 Mar - 10:01:42 10° SW 10:07:13 37° SSE 10:12:57 10° E daylight
01 Mar - 11:45:40 10° WSW 11:51:31 44° S 11:57:24 10° ESE daylight
01 Mar - 13:30:22 10° W 13:35:42 29° SSW 13:40:53 10° SE daylight
01 Mar - 15:17:42 10° SW 15:19:17 11° SW 15:20:50 10° SSW daylight
02 Mar - 07:25:10 10° S 07:27:38 13° SE 07:30:10 10° ESE daylight
02 Mar - 09:06:07 10° SW 09:11:15 32° SSE 09:16:40 10° E daylight
02 Mar - 10:49:41 10° WSW 10:55:27 44° S 11:01:23 10° ESE daylight
02 Mar - 12:34:07 10° W 12:39:43 35° SSW 12:45:17 10° SE daylight
02 Mar - 14:19:52 10° WSW 14:23:32 16° SSW 14:27:08 10° S daylight
03 Mar - 08:10:44 10° SSW 08:15:20 25° SSE 08:20:14 10° ESE daylight
03 Mar - 09:53:48 10° WSW 09:59:23 42° S 10:05:14 10° ESE daylight
03 Mar - 11:37:59 10° WSW 11:43:40 40° S 11:49:27 10° SE daylight
03 Mar - 13:23:03 10° WSW 13:27:41 22° SSW 13:32:15 10° SSE daylight
04 Mar - 07:15:41 10° SSW 07:19:29 19° SSE 07:23:33 10° ESE daylight
04 Mar - 08:58:03 10° SW 09:03:19 38° SSE 09:08:59 10° ESE daylight
04 Mar - 10:41:55 10° WSW 10:47:35 43° S 10:53:28 10° ESE daylight
04 Mar - 12:26:36 10° WSW 12:31:44 27° SSW 12:36:54 10° SSE daylight
05 Mar - 06:21:15 10° S 06:23:44 13° SE 06:26:20 10° ESE visible
05 Mar - 08:02:25 10° SW 08:07:19 32° SSE 08:12:38 10° E daylight
05 Mar - 09:45:58 10° WSW 09:51:28 43° S 09:57:20 10° ESE daylight
05 Mar - 11:30:20 10° W 11:35:42 33° SSW 11:41:13 10° SE daylight
05 Mar - 13:16:14 10° WSW 13:19:31 15° SW 13:22:47 10° S daylight
